2017-008DA

Last updated on Fri Mar 10 2017 00:15:03 GMT+0000 (Coordinated Universal Time)

1 42044U 17008DA 17068.69477869 .00001679 00000-0 77335-4 0 9990 2 42044 97.5106 130.2927 0008639 173.1114 187.0242 15.21680889 2736

Satellite not in orbit

2017-008DA